sat.trackr.live / text

‹ back to catalog

STARLINK-6185

NORAD 56901 · 2023-083AB

PAYLOAD ACTIVE UNKNOWN

§ Identity

Operator
Country
US
Launch date
2023-06-12
Launch site
AFETR
Launch vehicle
Mass (kg)
RCS (m²)

Purposes: comms

External: N2YO · Heavens-Above · Gunter

§ Orbital elements

Epoch: 2026-05-24T21:32:46.057920Z

Period
94.27 min
Inclination
43.0067°
Eccentricity
0.0001731
Mean motion
15.27572313 rev/d
Perigee alt
481.9 km
Apogee alt
484.3 km
Semi-major
6,861.2 km
B*
1.9522e-5
RAAN
11.5496°
Arg perigee
254.7640°
Mean anomaly
105.3020°
Rev number
16,343

§ Raw data

STARLINK-61851 56901U 23083AB  26144.89775530  .00000275  00000+0  19522-4 0  99942 56901  43.0067  11.5496 0001731 254.7640 105.3020 15.27572313163433

JSON: /api/v1/satellites/56901 · /tle

For live sub-satellite position, see the globe view (requires WebGL).

§ Visibility from observer

Set your observer location to see the next 7 days of passes ≥ 10°. The values pass through the URL so the page stays shareable.

No JS? Fill the form by hand. The geolocation button needs JavaScript.